Regional Weather Roundup
Issued by NWS

Home | Current Version | Previous Version | Text Only | Print | Product List | Glossary On
Versions: 1 2 3 4 5 6 7 8 9 10 11 12 13 14 15 16 17 18 19 20 21 22 23 24 25 26 27 28 29 30 31 32 33 34 35 36 37 38 39 40 41 42 43 44 45 46 47 48 49 50
071
ASUS43 KDTX 310610
RWRMI
MICHIGAN HOURLY REGIONAL WEATHER ROUNDUP
NATIONAL WEATHER SERVICE DETROIT/PONTIAC MI
200 AM EDT WED AUG 31 2016

NOTE: "FAIR" INDICATES FEW OR NO CLOUDS BELOW 12,000 FEET WITH NO
SIGNIFICANT WEATHER AND/OR OBSTRUCTION TO VISIBILITY.

MIZ047>049-052>055-059>063-066>070-074>076-081>083-310700-
SOUTHEAST LOWER MICHIGAN

CITY           SKY/WX    TMP DP  RH WIND       PRES   REMARKS
ADRIAN         MOCLDY    69  69 100 NW6       30.04F
6HR MIN TEMP:  69; 6HR MAX TEMP:  74; 6HR PCP:  0.13;

ALMA           FAIR      70  70 100 W13       30.03F FOG
ANN ARBOR      MOCLDY    69  68  96 W3        30.02F
BAD AXE        LGT RAIN  67  67  97 CALM      30.01F
CARO           CLOUDY    70  70  98 CALM      30.00F
DETROIT CITY   MOCLDY    75  68  78 NW5       30.01F
6HR MIN TEMP:  74; 6HR MAX TEMP:  77;

DETROIT        CLOUDY    72  68  87 SW5       30.02F
6HR MIN TEMP:  72; 6HR MAX TEMP:  78; 6HR PCP: TRACE;

FLINT          FAIR      71  68  90 W7        30.03S
6HR MIN TEMP:  71; 6HR MAX TEMP:  77;

GROSSE ILE     FAIR      72  67  87 CALM      30.01F
6HR MIN TEMP:  72; 6HR MAX TEMP:  75;

HILLSDALE      CLOUDY    68  67  95 CALM      30.04F FOG
6HR MIN TEMP:  51; 6HR MAX TEMP:  84; 6HR PCP:  0.23;

HOWELL         FAIR      71  68  92 W3        30.03F
6HR MIN TEMP:  70; 6HR MAX TEMP:  76;


CITY           SKY/WX    TMP DP  RH WIND       PRES   REMARKS
JACKSON        FAIR      69  68  96 SW5       30.04F
6HR MIN TEMP:  69; 6HR MAX TEMP:  77;

LAMBERTVILLE   FAIR      72  69  91 CALM      30.03F
6HR MIN TEMP:  72; 6HR MAX TEMP:  77;

LANSING        LGT RAIN  70  68  93 W6        30.04F
6HR MIN TEMP:  70; 6HR MAX TEMP:  72; 6HR PCP: TRACE;

LAPEER         FAIR      70  69  96 SW3       30.02F
6HR MIN TEMP:  69; 6HR MAX TEMP:  74;

MASON          LGT RAIN  70  68  92 W5        30.04F
MONROE         FAIR      70  70  99 NW5       30.01F
6HR MIN TEMP:  70; 6HR MAX TEMP:  74;

MT. CLEMENS    MOCLDY    74  67  78 SW5       29.99F
6HR MIN TEMP:  72; 6HR MAX TEMP:  74;

PONTIAC        LGT RAIN  71  68  90 W7        30.02F FOG
6HR MIN TEMP:  71; 6HR MAX TEMP:  78; 6HR PCP:  0.03;

PORT HOPE        N/A     69  66  90 W6        30.00S
6HR MIN TEMP:  68; 6HR MAX TEMP:  75; 6HR PCP:  0.27;

PORT HURON     FAIR      68  66  94 CALM      30.01F
TRI CITIES     FAIR      71  70  96 W6        30.01F
6HR MIN TEMP:  71; 6HR MAX TEMP:  76;

MIDLAND        FAIR      69  69  98 NW3       30.01F
6HR MIN TEMP:  69; 6HR MAX TEMP:  76;

TROY           CLOUDY    76  65  67 SW3       30.03F
SAGINAW HB     FAIR      72  68  88 CALM      30.00F
$$
MIZ043>046-050>051-056>058-064>065-071>073-077>080-310700-
SOUTHWEST LOWER MICHIGAN

CITY           SKY/WX    TMP DP  RH WIND       PRES   REMARKS
BATTLE CREEK   FAIR      68  68 100 W5        30.05F
6HR MIN TEMP:  68; 6HR MAX TEMP:  75;

BENTON HARBOR  FAIR      73  70  90 CALM      30.04S FOG
6HR MIN TEMP:  72; 6HR MAX TEMP:  77;

BIG RAPIDS     CLOUDY    72  71  97 N5        30.05R FOG
6HR MIN TEMP:  70; 6HR MAX TEMP:  77;

COLDWATER      FAIR      69  69 100 CALM      30.04F FOG
6HR MIN TEMP:  68; 6HR MAX TEMP:  69;

FREMONT        FOG       69  68  98 CALM      30.03F VSB<1/4
HOLLAND        FAIR      71  69  93 CALM      30.04F FOG
6HR MIN TEMP:  70; 6HR MAX TEMP:  75;

GRAND RAPIDS   MOCLDY    72  69  90 W3        30.03F
6HR MIN TEMP:  72; 6HR MAX TEMP:  76;

IONIA          FAIR      69  68  94 SW3       30.03F FOG
6HR MIN TEMP:  69; 6HR MAX TEMP:  73;

KALAMAZOO      FAIR      71  67  87 CALM      30.04F
6HR MIN TEMP:  71; 6HR MAX TEMP:  78; 6HR PCP: TRACE;

LUDINGTON      CLOUDY    69  68  97 NE10      30.05R
6HR MIN TEMP:  67; 6HR MAX TEMP:  73;

MARSHALL       FAIR      70  69  98 SW5       30.04F
6HR MIN TEMP:  70; 6HR MAX TEMP:  77;

MOUNT PLEASANT CLOUDY    72  70  95 W3        30.02F
6HR MIN TEMP:  72; 6HR MAX TEMP:  78;

MUSKEGON       FAIR      69  68  96 CALM      30.03S
6HR MIN TEMP:  69; 6HR MAX TEMP:  76;

SOUTH HAVEN    FAIR      72  72  99 CALM      30.03F
$$
MIZ016>042-310700-
NORTHERN LOWER MICHIGAN

CITY           SKY/WX    TMP DP  RH WIND       PRES   REMARKS
ALPENA         CLOUDY    61  57  87 W5        30.05R
6HR MIN TEMP:  59; 6HR MAX TEMP:  72; 6HR PCP:  0.02;

BEAVER ISLAND  FAIR      62  55  80 N6        30.09S
6HR MIN TEMP:  61; 6HR MAX TEMP:  69;

BELLAIRE       CLOUDY    64  56  77 CALM      30.08S
6HR MIN TEMP:  63; 6HR MAX TEMP:  75;

CADILLAC       CLOUDY    66  62  86 NE8       30.08R
CHARLEVOIX     FAIR      65  54  68 N12       30.10F
6HR MIN TEMP:  65; 6HR MAX TEMP:  73;

FRANKFORT      CLOUDY    68  55  63 NE6       30.08R
GAYLORD        FAIR      64  57  78 VRB5      30.08S
6HR MIN TEMP:  64; 6HR MAX TEMP:  75;

GRAYLING       CLOUDY    67  62  83 NW6       30.07F
6HR MIN TEMP:  66; 6HR MAX TEMP:  77;

HARBOR SPRINGS FAIR      58  55  89 CALM      30.08S
HOUGHTON LAKE  FAIR      67  64  90 N8        30.06S
6HR MIN TEMP:  64; 6HR MAX TEMP:  76;

MANISTEE       LGT RAIN  66  63  88 E5        30.08R
OSCODA         FAIR      64  63  94 NW6       30.01F
6HR MIN TEMP:  64; 6HR MAX TEMP:  70; 6HR PCP:  0.26;

PELLSTON       FAIR      54  52  93 CALM      30.07F
6HR MIN TEMP:  54; 6HR MAX TEMP:  74; 6HR PCP:  0.08;

ROGERS CITY    FAIR      60  57  89 W5        30.06S
TRAVERSE CITY  CLOUDY    70  55  59 N8        30.06S
6HR MIN TEMP:  70; 6HR MAX TEMP:  78;

$$
MIZ007>008-015-310700-
EASTERN UPPER MICHIGAN

CITY           SKY/WX    TMP DP  RH WIND       PRES   REMARKS
KINROSS        FAIR      54  53  97 W7        30.05S
6HR MIN TEMP:  54; 6HR MAX TEMP:  66;

MACKINAC ISLAN FAIR      59  55  85 NW7       30.06S
6HR MIN TEMP:  58; 6HR MAX TEMP:  70;

NEWBERRY       FAIR      57  56  95 NW7       30.08S
6HR MIN TEMP:  57; 6HR MAX TEMP:  65;

S. S. MARIE    FAIR      62  58  86 NW7       30.04R
6HR MIN TEMP:  61; 6HR MAX TEMP:  65;

MUNISING         N/A     64  60  87 NW8       30.09S
6HR MIN TEMP:  64; 6HR MAX TEMP:  66;

$$
MIZ004>006-011>014-085-310700-
CENTRAL UPPER MICHIGAN

CITY           SKY/WX    TMP DP  RH WIND       PRES   REMARKS
MANISTIQUE     FAIR      54  50  87 NW3       30.09R
ESCANABA       FOG       52  52 100 CALM      30.12R VSB 1/2
6HR MIN TEMP:  51; 6HR MAX TEMP:  72;

MENOMINEE      FAIR     N/A N/A N/A N3        30.13R
SAWYER-GWINN   FAIR      50  46  86 CALM      30.12S
6HR MIN TEMP:  50; 6HR MAX TEMP:  64;

$$
MIZ001>003-009>011-084-310700-
WESTERN UPPER MICHIGAN

CITY           SKY/WX    TMP DP  RH WIND       PRES   REMARKS
IRON MOUNTAIN  FAIR      54  49  83 CALM      30.12F
6HR MIN TEMP:  53; 6HR MAX TEMP:  74;

HOUGHTON       FAIR      53  51  93 NW7       30.12R
6HR MIN TEMP:  53; 6HR MAX TEMP:  66;

COPPER HARBOR    N/A     61  59  93 CALM      30.10R
6HR MIN TEMP:  61; 6HR MAX TEMP:  66;

IRONWOOD       FAIR      52  50  93 CALM      30.16S FOG
6HR MIN TEMP:  50; 6HR MAX TEMP:  68;

$$

ABBREVIATIONS USED IN REMARKS
   TC - TEMPERATURE IN CELSIUS
  WCI - WIND CHILL INDEX
   HX - HEAT INDEX
  VSB - VISIBILITY





USA.gov is the U.S. government's official web portal to all federal, state and local government web resources and services.